GUOWANG

导读 | 豆包AI

HULIANWANG DIGUI-107(中文名:互联网地瓜-107)是中国于2025年12月6日发射的卫星,归属中国卫星互联网星座体系。作为低轨卫星网络布局的组成部分,它将用于验证天地一体化通信技术,推进全球互联网覆盖,为地面盲区提供低成本接入服务,助力构建自主可控的全球卫星互联网基础设施,支撑物联网、空天地一体化通信等多场景应用发展。

基本信息
目录编号:
66917
目录名称:
HULIANWANG DIGUI-107
国际标识:
2025-285C
轨道中心:
EARTH
卫星名称:
HULIANWANG DIGUI-107
卫星全名:
GUOWANG
卫星状态:
在轨 (已飞行170 天)
发射日期:
2025-12-06 UTC
国别 :
中国 (CN)
星等 :
--
轨道信息
数据来源 国际轨道数据
星历时间: 2026-05-24T06:50:05+0800
1天前
查看轨道信息
半长轴: 7527.446km
偏心率: 0.0001054
轨道倾角: 50.002°
近地点辐角 208.604°
升交点赤经 232.961°
平近点角 151.478°
近地点: 1148.515km
远地点: 1150.103km
周期: 108.326分钟
每日圈数: 13.293254
详细信息
使用方式:
暂无
2D轨道图
3D轨道图
轨道高度分析图
轨道倾角分析图
轨道综合分析图
查看轨道综合分析图